User: anonymous   Login
Location: Dulzura
(32.6442°N, 116.7814°W)
Time: 08:37:46
(UTC+00:00)
Language:

MOS 1-B Rocket - Orbit

View from above orbital plane
View from above orbital plane
View from above satellite
View from above satellite

Ground track
Ground track

The orbit data is extracted from the following two-line orbital elements,

1 20491U 90013D   22149.13543018 -.00000282  00000-0 -46642-3 0  9991
2 20491  99.0324 303.8677 0468509  30.3003 332.4331 13.03578058536429
Epoch (UTC): 29 May 2022 03:15:01
Eccentricity: 0.0468509
inclination: 99.0324°
perigee height: 891 km
apogee height: 1605 km
right ascension of ascending node: 303.8677°
argument of perigee: 30.3003°
revolutions per day: 13.03578058
mean anomaly at epoch: 332.4331°
orbit number at epoch: 53642

The dashed part of the orbit path shows where the satellite is in the earth's shadow,  

DLR